Location: Bergfeld
(52.0500°N, 11.7833°E)
Time: 02:28:28
(UTC+00:00)

CZ-2C R/B - Pass Details

Date: 17 February 2020
Orbit: 667 x 785 km, 98.1° (Epoch: 03 April)

Event Time Altitude Azimuth Distance (km) Brightness Sun altitude
Rises 04:37:49 0° 9° (N) 3,290 5.9 -17.1°
Reaches altitude 10° 04:40:18 10° 2° (N) 2,357 5.1 -16.7°
Maximum altitude 04:45:02 37° 297° (WNW) 1,213 3.1 -16.0°
Enters shadow 04:47:47 21° 244° (WSW) 1,681 3.7 -15.6°
